Location: Finnegan
(51.1333°N, 112.0833°W)
Time: 02:08:38
(UTC+00:00)

N. Korean satellite - Pass Details

Date: 08 December 2021
Orbit: 446 x 492 km, 97.3° (Epoch: 16 January)

Event Time Altitude Azimuth Distance (km) Brightness Sun altitude
Rises 13:46:09 0° 2° (N) 2,468 10.0 -13.7°
Reaches altitude 10° 13:48:27 10° 348° (NNW) 1,587 8.9 -13.3°
Maximum altitude 13:51:12 23° 294° (WNW) 994 7.5 -12.9°
Drops below altitude 10° 13:53:56 10° 240° (WSW) 1,576 8.8 -12.5°
Sets 13:56:12 0° 225° (SW) 2,445 9.9 -12.2°
